User: anonymous   Login
Location: Paris
(48.8567°N, 2.3515°E)
Time: 21:09:41
(UTC+01:00)
Language:

ISS - Orbit

View from above orbital plane
View from above orbital plane
View from above satellite
View from above satellite

Ground track
Ground track

The orbit data is extracted from the following two-line orbital elements,

1 25544U 98067A   22020.72035763  .00007752  00000-0  14579-3 0  9999
2 25544  51.6445 346.8728 0006795  43.1425  16.8937 15.49568201322317
Epoch (UTC): 20 January 2022 17:17:18
Eccentricity: 0.0006795
inclination: 51.6445°
perigee height: 413 km
apogee height: 422 km
right ascension of ascending node: 346.8728°
argument of perigee: 43.1425°
revolutions per day: 15.49568201
mean anomaly at epoch: 16.8937°
orbit number at epoch: 32231

The dashed part of the orbit path shows where the satellite is in the earth's shadow,  

DLR